Regional Weather Roundup
Issued by NWS

Home | Current Version | Previous Version | Text Only | Print | Product List | Glossary Off
Versions: 1 2 3 4 5 6 7 8 9 10 11 12 13 14 15 16 17 18 19 20 21 22 23 24 25 26 27 28 29 30 31 32 33 34 35 36 37 38 39 40 41 42 43 44 45 46 47 48 49 50

507
ASUS43 KLSX 220307
RWRMO

WEATHER SUMMARY FOR MISSOURI
NATIONAL WEATHER SERVICE SPRINGFIELD MO
1000 PM CDT SAT OCT 21 2017

NOTE: "FAIR" INDICATES FEW OR NO CLOUDS BELOW 12,000 FEET WITH NO
       SIGNIFICANT WEATHER AND/OR OBSTRUCTIONS TO VISIBILITY.
       CURRENT SKY AND/OR WEATHER CONDITIONS ARE NOT AVAILABLE FOR
       CHILLICOTHE AND FARMINGTON.

MOZ001>031-035>038-043-044-053-054-220400-
...NORTHERN AND WESTERN MISSOURI...

CITY           SKY/WX    TMP DP  RH WIND       PRES   REMARKS
KANSAS CTY INT TSTM      55  54  96 N17G23    29.92R FOG
KANSAS C DTWN  RAIN      58  57  97 NW15      29.91R FOG
LEE`S SUMMIT   TSTM      63  61  93 NW13      29.89R FOG
ST JOSEPH      RAIN      55  55 100 N10       29.94F FOG
CHILLICOTHE      N/A     61  61 100 CALM      29.89R
KIRKSVILLE     RAIN      70  66  87 S15G23    29.88R

$$
MOZ066>068-077>081-088>096-101>105-220400-
...SOUTHWEST MISSOURI...

CITY           SKY/WX    TMP DP  RH WIND       PRES   REMARKS
SPRINGFIELD    CLOUDY    71  66  84 SE15G25   29.92R
JOPLIN         CLOUDY    72  66  81 S12       29.88R
BRANSON        MOCLDY    68  66  94 SE9       29.95S

$$
MOZ032>034-039>042-045>050-055>058-069>072-220400-
...CENTRAL MISSOURI...

CITY           SKY/WX    TMP DP  RH WIND       PRES   REMARKS
COLUMBIA       CLOUDY    72  65  78 S12       29.93S
JEFFERSON CITY CLOUDY    74  64  71 S12       29.93R THUNDER
ROLLA          CLOUDY    71  64  78 S8        29.98R
SEDALIA        MOCLDY    73  65  75 S16G26    29.89R
WHITEMAN AFB   MOCLDY    72  64  76 S17G23    29.83R
WARRENSBURG    CLOUDY    72  61  68 SE13      29.85S
OSAGE BEACH    CLOUDY    71  65  81 S6        29.95

$$
MOZ051-052-059>065-220400-
...EAST CENTRAL MISSOURI...

CITY           SKY/WX    TMP DP  RH WIND       PRES   REMARKS
ST LOUIS INTL  MOCLDY    74  60  61 S17G24    29.98R
SPIRIT OF STL  CLOUDY    74  61  63 VRB5      29.96R
ST CHARLES     CLOUDY    74  59  59 SE14      29.97R

$$
MOZ072>076-082>087-097>100-106>115-220400-
...SOUTH CENTRAL AND SOUTHEAST MISSOURI...

CITY           SKY/WX    TMP DP  RH WIND       PRES   REMARKS
CAPE GIRARDEAU CLEAR     70  60  70 SE10      30.04F
FARMINGTON     MOCLDY    72  61  68 S18G29    30.01S
POPLAR BLUFF   CLOUDY    72  62  71 S13       30.02F
WEST PLAINS    MOCLDY    72  63  73 SE12G21   29.98S

$$



USA.gov is the U.S. government's official web portal to all federal, state and local government web resources and services.